This is the latest recevied weather packets stored in our database for station/object KD9NSC. If no packets are shown the sender has not sent any weather packets the latest 10 day(s).
| Time | Temp. | Humidity | Pressure | Rain* | Wind** | Luminosity | Snow |
|---|---|---|---|---|---|---|---|
| 1777675782 | 6.11° C | 76% | 1019.9 hPa | 0 mm | - | 13 W/m² | - |
| 1777675479 | 6.11° C | 74% | 1019.7 hPa | 0 mm | - | 14 W/m² | - |
| 1777675177 | 6.11° C | 75% | 1019.9 hPa | 0 mm | - | 14 W/m² | - |
| 1777674873 | 6.67° C | 74% | 1019.8 hPa | 0 mm | - | 15 W/m² | - |
| 1777674568 | 6.67° C | 75% | 1020 hPa | 0 mm | - | 15 W/m² | - |
| 1777674267 | 6.67° C | 74% | 1019.9 hPa | 0 mm | - | 16 W/m² | - |
| 1777673962 | 6.67° C | 73% | 1019.9 hPa | 0 mm | - | 18 W/m² | - |
| 1777673659 | 6.67° C | 73% | 1019.9 hPa | 0 mm | - | 24 W/m² | - |
| 1777673357 | 7.22° C | 74% | 1019.9 hPa | 0 mm | - | 28 W/m² | - |
| 1777673055 | 7.22° C | 74% | 1019.9 hPa | 0 mm | - | 36 W/m² | - |
| 1777672750 | 7.22° C | 75% | 1019.8 hPa | 0 mm | - | 37 W/m² | - |
| 1777672447 | 7.22° C | 75% | 1019.6 hPa | 0 mm | - | 37 W/m² | - |
| 1777672143 | 7.22° C | 73% | 1019.8 hPa | 0 mm | - | 36 W/m² | - |
| 1777671837 | 7.22° C | 72% | 1020 hPa | 0 mm | - | 40 W/m² | - |
| 1777671533 | 7.78° C | 74% | 1020 hPa | 0 mm | - | 46 W/m² | - |
| 1777671230 | 7.22° C | 75% | 1019.9 hPa | 0 mm | - | 39 W/m² | - |
| 1777670926 | 7.22° C | 76% | 1019.8 hPa | 0 mm | - | 38 W/m² | - |
| 1777670623 | 7.22° C | 73% | 1019.9 hPa | 0 mm | - | 37 W/m² | - |
| 1777670320 | 7.22° C | 73% | 1019.6 hPa | 0 mm | - | 49 W/m² | - |
| 1777670017 | 7.22° C | 74% | 1019.7 hPa | 0 mm | - | 40 W/m² | - |
| 1777669714 | 7.22° C | 72% | 1019.7 hPa | 0 mm | - | 52 W/m² | - |
| 1777669411 | 7.22° C | 72% | 1019.8 hPa | 0 mm | - | 68 W/m² | - |
| 1777669108 | 7.22° C | 73% | 1019.6 hPa | 0 mm | - | 57 W/m² | - |
| 1777668805 | 7.22° C | 71% | 1019.7 hPa | 0 mm | - | 55 W/m² | - |
| 1777668496 | 7.78° C | 73% | 1019.6 hPa | 0 mm | - | 53 W/m² | - |
* Rain latest hour (hover to see other rain measurements)
** Current wind speed in m/s (hover to see current wind gust speed)